GW5611 Weather Reports


Display with metric or nautical units.
time (UTC)temp
F
wind
direction
speed
MPH
gust
MPH
rain 1hr
in
rain 24hr
in
rain mn
in
humidity
%
barometer
mb
20260510053341 57 224 0.0 1.0 0.00 0.00 0.00 66 1012.9
20260510052837 57 216 0.0 0.0 0.00 0.00 0.00 64 1013.3
20260510052333 58 223 1.0 2.0 0.00 0.00 0.00 63 1012.9
20260510051830 58 219 0.0 1.0 0.00 0.00 0.00 62 1012.9
20260510051326 59 193 2.0 3.0 0.00 0.00 0.00 62 1013.3
20260510050823 59 213 1.0 1.0 0.00 0.00 0.00 61 1013.3
20260510050320 59 214 0.0 1.0 0.00 0.00 0.00 62 1013.3
20260510045817 59 160 1.0 2.0 0.00 0.00 0.00 61 1013.3
20260510045314 58 210 2.0 3.0 0.00 0.00 0.00 62 1013.3
20260510044811 57 236 0.0 1.0 0.00 0.00 0.00 63 1012.9
20260510044308 55 222 2.0 2.0 0.00 0.00 0.00 65 1013.3
20260510043804 53 226 1.0 1.0 0.00 0.00 0.00 69 1013.3
20260510043300 51 235 2.0 3.0 0.00 0.00 0.00 72 1013.3
20260510042758 53 238 1.0 1.0 0.00 0.00 0.00 71 1013.7
20260510042253 53 227 0.0 0.0 0.00 0.00 0.00 70 1013.3
20260510041750 54 223 0.0 0.0 0.00 0.00 0.00 68 1013.7
20260510041247 54 217 0.0 0.0 0.00 0.00 0.00 67 1013.7
20260510040745 57 225 0.0 0.0 0.00 0.00 0.00 65 1013.3
20260510040236 58 223 0.0 0.0 0.00 0.00 0.00 62 1013.3
20260510035730 59 222 0.0 1.0 0.00 0.00 0.00 59 1013.3
20260510035227 59 218 0.0 0.0 0.00 0.00 0.00 58 1013.3
20260510034722 59 231 1.0 2.0 0.00 0.00 0.00 57 1013.3
20260510034221 60 221 0.0 0.0 0.00 0.00 0.00 57 1013.3
20260510033716 60 223 0.0 0.0 0.00 0.00 0.00 57 1013.3
20260510033215 60 222 0.0 0.0 0.00 0.00 0.00 56 1013.7
20260510032711 61 222 1.0 1.0 0.00 0.00 0.00 55 1013.7
20260510032207 61 227 1.0 1.0 0.00 0.00 0.00 56 1013.7
20260510031702 61 222 2.0 2.0 0.00 0.00 0.00 55 1013.7
20260510031159 61 208 2.0 2.0 0.00 0.00 0.00 54 1013.3
20260510030658 62 212 3.0 5.0 0.00 0.00 0.00 54 1013.3
20260510030156 62 242 3.0 5.0 0.00 0.00 0.00 54 1013.3
20260510025653 61 227 2.0 2.0 0.00 0.00 0.00 54 1013.3
20260510025150 61 223 0.0 1.0 0.00 0.00 0.00 55 1013.3
20260510024647 62 214 0.0 0.0 0.00 0.00 0.00 54 1012.9
20260510024143 62 195 3.0 5.0 0.00 0.00 0.00 54 1012.9
20260510023639 62 195 0.0 0.0 0.00 0.00 0.00 54 1012.9
20260510023137 61 219 2.0 2.0 0.00 0.00 0.00 54 1012.5
20260510022636 62 220 0.0 0.0 0.00 0.00 0.00 53 1012.9
20260510022132 62 215 2.0 3.0 0.00 0.00 0.00 52 1012.9
20260510021622 62 226 2.0 2.0 0.00 0.00 0.00 52 1012.5
20260510021120 62 236 1.0 1.0 0.00 0.00 0.00 53 1012.5
20260510020613 61 218 4.0 6.0 0.00 0.00 0.00 52 1012.5
20260510020109 62 223 0.0 0.0 0.00 0.00 0.00 52 1012.2
20260510015605 62 209 1.0 1.0 0.00 0.00 0.00 52 1012.2
20260510015102 62 224 1.0 1.0 0.00 0.00 0.00 51 1012.2
20260510014557 61 255 1.0 2.0 0.00 0.00 0.00 52 1012.2
20260510014055 61 226 3.0 5.0 0.00 0.00 0.00 53 1011.9
20260510013549 60 225 0.0 0.0 0.00 0.00 0.00 53 1012.2
20260510013045 59 227 1.0 1.0 0.00 0.00 0.00 55 1011.9
20260510012540 60 222 0.0 0.0 0.00 0.00 0.00 58 1011.9
20260510012037 61 228 0.0 1.0 0.00 0.00 0.00 57 1011.5
20260510011536 61 225 0.0 1.0 0.00 0.00 0.00 53 1011.5
20260510011032 62 229 1.0 1.0 0.00 0.00 0.00 53 1011.5
20260510010529 62 221 0.0 1.0 0.00 0.00 0.00 53 1011.5
20260510010026 62 217 0.0 0.0 0.00 0.00 0.00 54 1011.5
20260510005521 62 197 1.0 1.0 0.00 0.00 0.00 54 1011.1
20260510005019 62 209 1.0 2.0 0.00 0.00 0.00 56 1011.5
20260510004516 60 209 2.0 3.0 0.00 0.00 0.00 62 1011.5
20260510004014 59 230 0.0 1.0 0.00 0.00 0.00 64 1011.1
20260510003511 58 224 2.0 3.0 0.00 0.00 0.00 65 1011.1
20260510003006 58 225 0.0 1.0 0.00 0.00 0.00 71 1011.1
20260510002502 59 223 0.0 0.0 0.00 0.00 0.00 73 1011.1
20260510001959 60 222 0.0 0.0 0.00 0.00 0.00 72 1010.7
20260510001456 61 227 0.0 0.0 0.00 0.00 0.00 71 1011.1
20260510000954 62 220 0.0 0.0 0.00 0.00 0.00 67 1010.7
20260510000449 62 223 0.0 1.0 0.00 0.00 0.00 66 1010.4
20260509235946 64 240 1.0 1.0 0.00 0.00 0.00 65 1010.4
20260509235443 65 220 0.0 0.0 0.00 0.00 0.00 64 1010.7
20260509234940 66 220 0.0 1.0 0.00 0.00 0.00 61 1010.1
20260509234436 67 226 1.0 1.0 0.00 0.00 0.00 60 1010.4
20260509233934 68 217 1.0 1.0 0.00 0.00 0.00 59 1010.1
20260509233432 68 219 0.0 0.0 0.00 0.00 0.00 59 1010.4
20260509232927 67 220 0.0 0.0 0.00 0.00 0.00 59 1010.4
20260509232425 67 208 3.0 5.0 0.00 0.00 0.00 58 1010.4
20260509231921 68 221 1.0 1.0 0.00 0.00 0.00 57 1010.4
20260509231418 69 216 4.0 5.0 0.00 0.00 0.00 55 1010.4
20260509230917 69 213 3.0 3.0 0.00 0.00 0.00 55 1010.4
20260509230413 69 239 4.0 5.0 0.00 0.00 0.00 56 1010.1
20260509225909 69 220 3.0 3.0 0.00 0.00 0.00 55 1010.4
20260509225405 69 207 3.0 3.0 0.00 0.00 0.00 57 1010.4
20260509224901 68 192 3.0 5.0 0.00 0.00 0.00 58 1010.1
20260509224357 68 199 3.0 3.0 0.00 0.00 0.00 58 1010.4
20260509223854 69 217 3.0 5.0 0.00 0.00 0.00 58 1010.4
20260509223351 69 165 3.0 5.0 0.00 0.00 0.00 57 1010.4
20260509222849 68 220 2.0 2.0 0.00 0.00 0.00 58 1010.1
20260509222348 68 155 3.0 6.0 0.00 0.00 0.00 57 1010.4
20260509221844 69 213 1.0 2.0 0.00 0.00 0.00 56 1010.4
20260509221342 69 198 2.0 2.0 0.00 0.00 0.00 56 1010.1
20260509220842 68 214 3.0 3.0 0.00 0.00 0.00 58 1010.4
20260509220339 68 217 1.0 2.0 0.00 0.00 0.00 59 1010.4
20260509215834 68 221 2.0 3.0 0.00 0.00 0.00 57 1010.4
20260509215331 68 196 4.0 6.0 0.00 0.00 0.00 56 1010.1
20260509214828 69 219 2.0 2.0 0.00 0.00 0.00 56 1010.4
20260509214325 69 219 3.0 3.0 0.00 0.00 0.00 56 1010.4
20260509213823 69 219 3.0 5.0 0.00 0.00 0.00 55 1010.1
20260509213318 68 214 3.0 3.0 0.00 0.00 0.00 56 1010.1
20260509212816 69 176 3.0 5.0 0.00 0.00 0.00 55 1010.1
20260509212313 69 193 5.0 6.0 0.00 0.00 0.00 53 1010.1
20260509211808 69 217 1.0 2.0 0.00 0.00 0.00 55 1010.1
20260509211305 69 256 3.0 3.0 0.00 0.00 0.00 54 1010.4
20260509210801 69 218 3.0 5.0 0.00 0.00 0.00 53 1010.1
20260509210259 68 216 3.0 5.0 0.00 0.00 0.00 53 1010.1
20260509205758 68 206 1.0 2.0 0.00 0.00 0.00 55 1010.1
20260509205253 68 192 3.0 3.0 0.00 0.00 0.00 52 1010.1
20260509204750 69 218 2.0 3.0 0.00 0.00 0.00 53 1010.1
20260509204246 69 219 3.0 3.0 0.00 0.00 0.00 52 1009.7
20260509203742 70 202 5.0 6.0 0.00 0.00 0.00 51 1009.7
20260509203241 71 188 3.0 5.0 0.00 0.00 0.00 49 1009.7
20260509202736 68 202 3.0 5.0 0.00 0.00 0.00 53 1009.7
20260509202232 68 218 4.0 6.0 0.00 0.00 0.00 54 1009.7
20260509201726 68 217 3.0 5.0 0.00 0.00 0.00 53 1009.7
20260509201223 68 209 3.0 3.0 0.00 0.00 0.00 53 1009.7
20260509200720 67 184 4.0 6.0 0.00 0.00 0.00 54 1009.7
20260509200215 68 244 3.0 3.0 0.00 0.00 0.00 53 1009.7
20260509195712 68 192 5.0 6.0 0.00 0.00 0.00 53 1009.7
20260509195207 71 189 3.0 5.0 0.00 0.00 0.00 51 1009.7
20260509194706 70 224 2.0 3.0 0.00 0.00 0.00 49 1009.7
20260509194203 71 217 4.0 6.0 0.00 0.00 0.00 50 1010.1
20260509193700 72 187 3.0 5.0 0.00 0.00 0.00 53 1010.1
20260509193155 70 204 2.0 3.0 0.00 0.00 0.00 54 1010.1
20260509192652 69 190 4.0 6.0 0.00 0.00 0.00 55 1010.1
20260509192147 69 225 3.0 5.0 0.00 0.00 0.00 56 1010.1
20260509191647 68 192 3.0 5.0 0.00 0.00 0.00 57 1010.1
20260509191144 68 213 3.0 3.0 0.00 0.00 0.00 58 1010.1
20260509190640 68 211 3.0 3.0 0.00 0.00 0.00 57 1010.7
20260509190137 69 157 6.0 8.0 0.00 0.00 0.00 53 1010.1
20260509185635 69 212 7.0 8.0 0.00 0.00 0.00 54 1010.1
20260509185131 69 182 6.0 9.0 0.00 0.00 0.00 54 1010.4
20260509184629 69 215 5.0 7.0 0.00 0.00 0.00 55 1010.4
20260509184125 67 181 3.0 5.0 0.00 0.00 0.00 58 1010.4
20260509183622 67 225 5.0 7.0 0.00 0.00 0.00 56 1010.7
20260509183117 68 183 6.0 8.0 0.00 0.00 0.00 54 1010.4
20260509182613 69 215 5.0 6.0 0.00 0.00 0.00 53 1010.4
20260509182110 69 222 2.0 2.0 0.00 0.00 0.00 53 1010.4
20260509181609 70 209 5.0 8.0 0.00 0.00 0.00 54 1010.4
20260509181106 70 300 4.0 5.0 0.00 0.00 0.00 54 1010.7
20260509180602 70 235 2.0 2.0 0.00 0.00 0.00 54 1010.7
20260509180059 69 189 3.0 3.0 0.00 0.00 0.00 54 1010.7
20260509175554 68 218 2.0 3.0 0.00 0.00 0.00 57 1011.1
20260509175052 66 199 4.0 7.0 0.00 0.00 0.00 56 1010.7
20260509174548 67 215 3.0 5.0 0.00 0.00 0.00 55 1010.7
20260509174038 68 178 3.0 5.0 0.00 0.00 0.00 56 1011.1
20260509173538 67 202 4.0 5.0 0.00 0.00 0.00 56 1011.1
20260509173034 68 222 1.0 1.0 0.00 0.00 0.00 60 1010.7
20260509172531 69 216 3.0 5.0 0.00 0.00 0.00 52 1010.7
20260509172027 69 202 4.0 6.0 0.00 0.00 0.00 53 1011.1
20260509171523 69 196 4.0 5.0 0.00 0.00 0.00 56 1011.1
20260509171020 69 312 3.0 8.0 0.00 0.00 0.00 54 1011.1
20260509170515 68 202 6.0 7.0 0.00 0.00 0.00 58 1011.5
20260509170011 68 181 3.0 3.0 0.00 0.00 0.00 57 1011.5
20260509165510 67 227 4.0 6.0 0.00 0.00 0.00 55 1011.5
20260509165006 68 205 8.0 10.0 0.00 0.00 0.00 58 1011.5
20260509164502 67 221 3.0 6.0 0.00 0.00 0.00 63 1011.1
20260509163958 66 199 7.0 9.0 0.00 0.00 0.00 60 1011.1
20260509163456 66 145 5.0 6.0 0.00 0.00 0.00 62 1011.5
20260509162955 66 221 5.0 8.0 0.00 0.00 0.00 60 1011.5
20260509162454 64 184 5.0 8.0 0.00 0.00 0.00 65 1011.9
20260509161949 64 182 3.0 7.0 0.00 0.00 0.00 65 1011.5
20260509161446 64 216 5.0 8.0 0.00 0.00 0.00 63 1011.5
20260509160941 64 156 3.0 5.0 0.00 0.00 0.00 63 1011.5
20260509160437 65 199 5.0 6.0 0.00 0.00 0.00 62 1011.5
20260509155932 64 230 5.0 7.0 0.00 0.00 0.00 62 1011.5
20260509155429 63 194 3.0 3.0 0.00 0.00 0.00 64 1011.5
20260509154926 63 214 4.0 6.0 0.00 0.00 0.00 63 1011.5
20260509154422 64 172 5.0 6.0 0.00 0.00 0.00 63 1011.5
20260509153919 63 233 3.0 5.0 0.00 0.00 0.00 62 1011.5
20260509153416 64 203 5.0 8.0 0.00 0.00 0.00 61 1011.5
20260509152913 65 194 3.0 3.0 0.00 0.00 0.00 61 1011.5
20260509152409 64 246 2.0 3.0 0.00 0.00 0.00 63 1011.9
20260509151906 63 201 4.0 5.0 0.00 0.00 0.00 63 1011.9
20260509151402 64 221 3.0 5.0 0.00 0.00 0.00 62 1011.9
20260509150901 65 215 5.0 7.0 0.00 0.00 0.00 62 1011.9
20260509150358 64 190 4.0 6.0 0.00 0.00 0.00 64 1011.9
20260509145856 64 194 5.0 6.0 0.00 0.00 0.00 65 1011.9
20260509145355 63 206 5.0 7.0 0.00 0.00 0.00 65 1011.9
20260509144852 62 214 4.0 6.0 0.00 0.00 0.00 66 1011.1
20260509144349 62 174 5.0 7.0 0.00 0.00 0.00 66 1011.9
20260509143846 62 223 1.0 2.0 0.00 0.00 0.00 66 1011.5
20260509143344 62 162 6.0 8.0 0.00 0.00 0.00 65 1011.5
20260509142840 62 219 3.0 5.0 0.00 0.00 0.00 64 1011.5
20260509142336 63 199 7.0 9.0 0.00 0.00 0.00 64 1011.5
20260509141832 62 198 4.0 5.0 0.00 0.00 0.00 67 1011.5
20260509141329 61 114 3.0 5.0 0.00 0.00 0.00 66 1011.5
20260509140825 60 147 4.0 6.0 0.00 0.00 0.00 69 1011.5
20260509140323 60 232 4.0 6.0 0.00 0.00 0.00 67 1011.1
20260509135821 59 196 3.0 3.0 0.00 0.00 0.00 68 1011.5
20260509135318 59 199 1.0 3.0 0.00 0.00 0.00 69 1011.5
20260509134815 59 219 2.0 3.0 0.00 0.00 0.00 69 1011.9
20260509134312 59 204 5.0 8.0 0.00 0.00 0.00 68 1011.9
20260509133809 59 208 5.0 7.0 0.00 0.00 0.00 68 1011.9
20260509133306 59 211 4.0 5.0 0.00 0.00 0.00 68 1011.9
20260509132804 59 212 3.0 5.0 0.00 0.00 0.00 70 1012.2
20260509132306 58 215 3.0 5.0 0.00 0.00 0.00 70 1012.2
20260509131759 57 199 3.0 5.0 0.00 0.00 0.00 69 1012.2
20260509131255 57 206 3.0 6.0 0.00 0.00 0.00 69 1011.9
20260509130752 57 202 5.0 7.0 0.00 0.00 0.00 69 1012.5
20260509130248 57 209 3.0 5.0 0.00 0.00 0.00 70 1012.2
20260509125744 57 210 2.0 3.0 0.00 0.00 0.00 69 1012.2
20260509125242 56 233 4.0 5.0 0.00 0.00 0.00 69 1012.5
20260509124738 56 229 5.0 6.0 0.00 0.00 0.00 68 1012.2
20260509124234 56 214 4.0 6.0 0.00 0.00 0.00 69 1012.5
20260509123733 56 221 5.0 8.0 0.00 0.00 0.00 68 1012.5
20260509123230 56 213 3.0 5.0 0.00 0.00 0.00 69 1012.2
20260509122725 56 225 5.0 6.0 0.00 0.00 0.00 67 1012.5
20260509122222 56 182 4.0 5.0 0.00 0.00 0.00 68 1012.5
20260509121719 56 228 4.0 6.0 0.00 0.00 0.00 68 1012.2
20260509121217 56 207 3.0 5.0 0.00 0.00 0.00 67 1012.5
20260509120715 56 239 5.0 7.0 0.00 0.00 0.00 67 1012.2
20260509120212 56 199 8.0 11.0 0.00 0.00 0.00 67 1012.2
20260509115710 55 212 5.0 7.0 0.00 0.00 0.00 67 1012.2
20260509115207 55 165 3.0 3.0 0.00 0.00 0.00 67 1012.2
20260509114705 55 192 6.0 8.0 0.00 0.00 0.00 67 1012.2
20260509114204 55 184 5.0 8.0 0.00 0.00 0.00 67 1012.2
20260509113702 55 213 2.0 2.0 0.00 0.00 0.00 66 1012.2
20260509113159 55 188 3.0 3.0 0.00 0.00 0.00 66 1012.2
20260509112655 55 205 1.0 1.0 0.00 0.00 0.00 66 1012.2
20260509112152 55 221 5.0 6.0 0.00 0.00 0.00 66 1012.2
20260509111649 54 196 2.0 2.0 0.00 0.00 0.00 66 1012.2
20260509111146 54 224 2.0 3.0 0.00 0.00 0.00 66 1012.2
20260509110643 54 209 3.0 3.0 0.00 0.00 0.00 65 1011.9
20260509110140 54 222 2.0 2.0 0.00 0.00 0.00 65 1012.2
20260509105638 54 211 1.0 2.0 0.00 0.00 0.00 64 1012.2
20260509105130 54 207 4.0 6.0 0.00 0.00 0.00 64 1011.9
20260509104627 54 200 1.0 2.0 0.00 0.00 0.00 64 1012.2
20260509104123 54 227 5.0 7.0 0.00 0.00 0.00 64 1011.9
20260509103622 54 195 2.0 2.0 0.00 0.00 0.00 64 1011.9
20260509103119 54 214 4.0 5.0 0.00 0.00 0.00 63 1012.2
20260509102616 54 216 2.0 3.0 0.00 0.00 0.00 63 1012.2
20260509102113 54 205 3.0 3.0 0.00 0.00 0.00 63 1012.2
20260509101609 54 222 6.0 7.0 0.00 0.00 0.00 62 1012.2
20260509101106 54 217 1.0 2.0 0.00 0.00 0.00 62 1012.2
20260509100603 54 218 2.0 2.0 0.00 0.00 0.00 62 1012.2
20260509100101 54 199 1.0 2.0 0.00 0.00 0.00 62 1012.2
20260509095557 54 222 2.0 2.0 0.00 0.00 0.00 62 1012.2
20260509095055 54 222 3.0 3.0 0.00 0.00 0.00 62 1012.2
20260509094550 54 205 5.0 5.0 0.00 0.00 0.00 62 1012.2
20260509094048 54 173 2.0 5.0 0.00 0.00 0.00 62 1011.9
20260509093546 54 207 3.0 3.0 0.00 0.00 0.00 62 1012.2
20260509093043 54 217 2.0 2.0 0.00 0.00 0.00 62 1012.2
20260509092541 54 209 3.0 3.0 0.00 0.00 0.00 62 1012.2
20260509092040 54 207 5.0 6.0 0.00 0.00 0.00 62 1012.2
20260509091537 54 216 2.0 2.0 0.00 0.00 0.00 61 1012.2
20260509091033 54 200 5.0 5.0 0.00 0.00 0.00 61 1012.5
20260509090531 54 217 2.0 3.0 0.00 0.00 0.00 61 1012.2
20260509090028 53 206 3.0 3.0 0.00 0.00 0.00 62 1012.2
20260509085525 54 216 3.0 3.0 0.00 0.00 0.00 61 1012.2
20260509085021 54 217 2.0 3.0 0.00 0.00 0.00 60 1012.2
20260509084518 54 213 5.0 7.0 0.00 0.00 0.00 60 1012.5
20260509084015 54 207 6.0 8.0 0.00 0.00 0.00 59 1012.2
20260509083513 54 213 3.0 5.0 0.00 0.00 0.00 60 1012.2
20260509083009 54 213 1.0 2.0 0.00 0.00 0.00 59 1012.2
20260509082507 53 240 2.0 2.0 0.00 0.00 0.00 59 1012.5
20260509082004 53 197 3.0 5.0 0.00 0.00 0.00 58 1012.5
20260509081501 53 189 2.0 2.0 0.00 0.00 0.00 58 1012.5
20260509080957 54 235 3.0 3.0 0.00 0.00 0.00 57 1012.2
20260509080456 54 214 1.0 2.0 0.00 0.00 0.00 56 1012.5
20260509075954 54 225 4.0 6.0 0.00 0.00 0.00 56 1012.5
20260509075450 54 221 5.0 9.0 0.00 0.00 0.00 56 1012.5
20260509074948 54 210 2.0 3.0 0.00 0.00 0.00 55 1012.5
20260509074446 54 223 5.0 6.0 0.00 0.00 0.00 55 1012.5
20260509073942 54 196 3.0 3.0 0.00 0.00 0.00 55 1012.9
20260509073438 53 210 2.0 3.0 0.00 0.00 0.00 56 1012.5
20260509072935 54 220 1.0 2.0 0.00 0.00 0.00 55 1012.9
20260509072432 54 207 5.0 8.0 0.00 0.00 0.00 55 1012.9
20260509071928 54 217 4.0 6.0 0.00 0.00 0.00 54 1012.9
20260509071425 53 243 4.0 6.0 0.00 0.00 0.00 55 1012.9
20260509070923 54 245 4.0 6.0 0.00 0.00 0.00 55 1012.9
20260509070420 54 218 2.0 3.0 0.00 0.00 0.00 55 1012.9
20260509065914 54 241 4.0 5.0 0.00 0.00 0.00 54 1012.9
20260509065411 54 237 3.0 3.0 0.00 0.00 0.00 54 1012.9
20260509064907 54 165 2.0 2.0 0.00 0.00 0.00 54 1012.9
20260509064405 54 220 3.0 5.0 0.00 0.00 0.00 54 1013.3
20260509063903 54 217 1.0 2.0 0.00 0.00 0.00 54 1013.7
20260509063358 54 223 5.0 7.0 0.00 0.00 0.00 53 1013.3
20260509062856 54 215 3.0 3.0 0.00 0.00 0.00 53 1013.7
20260509062353 54 209 3.0 3.0 0.00 0.00 0.00 53 1013.7
20260509061850 54 200 5.0 6.0 0.00 0.00 0.00 53 1014.0
20260509061348 54 228 4.0 5.0 0.00 0.00 0.00 53 1013.7
20260509060844 53 222 4.0 5.0 0.00 0.00 0.00 54 1014.0
20260509060342 53 212 2.0 2.0 0.00 0.00 0.00 54 1013.7
20260509055837 53 214 3.0 3.0 0.00 0.00 0.00 54 1013.7
20260509055333 54 223 2.0 3.0 0.00 0.00 0.00 54 1013.7
20260509054830 54 218 2.0 3.0 0.00 0.00 0.00 54 1014.0
20260509054326 54 202 3.0 5.0 0.00 0.00 0.00 53 1014.0
20260509053825 54 218 3.0 5.0 0.00 0.00 0.00 53 1014.0